Weather History for Greybull, WY

Change the Weather History Date:

Tuesday, January 8, 2013

  Actual Average Record
Temperature  
Mean Temperature 25 °F 16 °F  
Max Temperature 37 °F 28 °F 45 °F (1990)
Min Temperature 12 °F 4 °F -20 °F (2010)
Degree Days  
Heating Degree Days 40 49  
Month to date heating degree days 444 392  
Since 1 July heating degree days 3423 3715  
Cooling Degree Days 0 0  
Month to date cooling degree days 0 0  
Year to date cooling degree days 0 0  
Moisture  
Dew Point 16 °F    
Average Humidity 70    
Maximum Humidity 88    
Minimum Humidity 52    
Precipitation  
Precipitation 0.00 in 0.01 in 0.25 in (1982)
Month to date precipitation T 0.08  
Year to date precipitation T 0.08  
Sea Level Pressure  
Sea Level Pressure 30.08 in    
Wind  
Wind Speed 3 mph (SE)    
Max Wind Speed 10 mph    
Max Gust Speed 14 mph    
Visibility 10 miles    
Events      
T = Trace of Precipitation, MM = Missing Value Source: NWS Daily Summary

Daily Weather History Graph

Daily Weather History Graph

Search for Another Location

Airport:

Trip Planner

Search our weather history database for the weather conditions in past years. The results will help you decide how hot, cold, wet, or windy it might be!

Date:

Astronomy

Jan. 08, 2013 Rise Set
Actual Time 7:48 AM MST 4:50 PM MST
Civil Twilight 7:15 AM MST 5:23 PM MST
Nautical Twilight 6:38 AM MST 5:59 PM MST
Astronomical Twilight 6:03 AM MST 6:35 PM MST
Moon 4:23 AM MST (1/8) 1:55 PM MST (1/8)
Length of Visible Light 10h 08m
Length of Day
9h 02m
Waning Crescent, 13% of the Moon is Illuminated
Jan 8
Waning Crescent
Jan 11
New
Jan 18
First Quarter
Jan 26
Full
Feb 3
Last Quarter

Hourly Weather History & Observations

Time (MST) Temp. Windchill Dew Point Humidity Pressure Visibility Wind Dir Wind Speed Gust Speed Precip Events Conditions
12:53 AM 19.0 °F 12.3 °F 14.0 °F 81% 29.92 in 10.0 mi ESE 4.6 mph - N/A   Clear
1:53 AM 21.0 °F 14.6 °F 15.1 °F 78% 29.92 in 10.0 mi SSE 4.6 mph - N/A   Clear
2:53 AM 21.0 °F 16.2 °F 15.1 °F 78% 29.92 in 10.0 mi South 3.5 mph - N/A   Scattered Clouds
3:53 AM 19.9 °F - 15.1 °F 81% 29.95 in 10.0 mi Calm Calm - N/A   Overcast
4:53 AM 19.9 °F 12.1 °F 14.0 °F 78% 29.97 in 10.0 mi ESE 5.8 mph - N/A   Overcast
5:53 AM 19.9 °F 14.9 °F 15.1 °F 81% 29.98 in 10.0 mi South 3.5 mph - N/A   Overcast
6:53 AM 19.0 °F 11.1 °F 14.0 °F 81% 30.00 in 10.0 mi SSE 5.8 mph - N/A   Overcast
7:53 AM 16.0 °F - 10.9 °F 81% 30.03 in 10.0 mi Calm Calm - N/A   Scattered Clouds
8:53 AM 16.0 °F 10.4 °F 12.0 °F 84% 30.07 in 10.0 mi Variable 3.5 mph - N/A   Clear
9:53 AM 19.9 °F - 12.9 °F 74% 30.08 in 10.0 mi Calm Calm - N/A   Clear
10:53 AM 25.0 °F 20.7 °F 16.0 °F 69% 30.08 in 10.0 mi SSE 3.5 mph - N/A   Partly Cloudy
11:53 AM 28.9 °F 22.8 °F 17.1 °F 61% 30.06 in 10.0 mi SSE 5.8 mph - N/A   Clear
12:53 PM 32.0 °F 28.7 °F 18.0 °F 56% 30.06 in 10.0 mi ESE 3.5 mph - N/A   Clear
1:53 PM 35.1 °F 32.2 °F 19.9 °F 54% 30.07 in 10.0 mi ESE 3.5 mph - N/A   Clear
2:53 PM 34.0 °F 28.8 °F 19.9 °F 56% 30.10 in 10.0 mi South 5.8 mph - N/A   Clear
3:53 PM 34.0 °F 28.8 °F 21.0 °F 59% 30.12 in 10.0 mi SSE 5.8 mph - N/A   Clear
4:53 PM 30.0 °F 24.1 °F 19.9 °F 66% 30.14 in 10.0 mi East 5.8 mph - N/A   Clear
5:53 PM 28.9 °F 23.9 °F 19.9 °F 69% 30.14 in 10.0 mi SSE 4.6 mph - N/A   Overcast
6:53 PM 28.0 °F - 19.9 °F 72% 30.17 in 10.0 mi Calm Calm - N/A   Overcast
7:53 PM 26.1 °F 20.5 °F 18.0 °F 71% 30.20 in 10.0 mi ESE 4.6 mph - N/A   Mostly Cloudy
8:53 PM 24.1 °F 17.0 °F 16.0 °F 71% 30.23 in 10.0 mi SE 5.8 mph - N/A   Mostly Cloudy
9:53 PM 21.9 °F - 15.1 °F 75% 30.23 in 10.0 mi Calm Calm - N/A   Partly Cloudy
10:53 PM 16.0 °F - 12.0 °F 84% 30.25 in 10.0 mi Calm Calm - N/A   Clear
11:53 PM 14.0 °F - 10.0 °F 84% 30.27 in 10.0 mi Calm Calm - N/A   Clear